Radiation Dose at Monitoring Post of Fukushima Daini Nuclear Power Station
Date,Time,MP-1(microSv/h),MP-2(microSv/h),MP-3(microSv/h),MP-4(microSv/h),MP-5(microSv/h),MP-6(microSv/h),MP-7(microSv/h),Wind Direction,Wind Velocity(m/s),Rain
2024/05/07,00:00,0.151,0.133,0.218,0.202,0.208,0.119,0.076,south,9.3,Yes
2024/05/07,00:10,0.149,0.133,0.218,0.201,0.210,0.119,0.078,south,10.3,Yes
2024/05/07,00:20,0.151,0.133,0.219,0.203,0.208,0.118,0.078,south,10.6,Yes
2024/05/07,00:30,0.151,0.133,0.218,0.202,0.210,0.119,0.077,south,9.8,Yes
2024/05/07,00:40,0.151,0.133,0.218,0.202,0.209,0.118,0.078,south,8.3,No
2024/05/07,00:50,0.151,0.134,0.217,0.201,0.209,0.119,0.077,south,9.2,No
2024/05/07,01:00,0.150,0.132,0.219,0.201,0.209,0.119,0.076,south,10.3,Yes
2024/05/07,01:10,0.151,0.132,0.217,0.204,0.207,0.119,0.077,south,9.5,Yes
2024/05/07,01:20,0.149,0.133,0.219,0.201,0.210,0.119,0.077,south-southeast,9.0,Yes
2024/05/07,01:30,0.151,0.134,0.217,0.202,0.208,0.119,0.077,south,10.3,Yes
2024/05/07,01:40,0.150,0.133,0.218,0.201,0.209,0.118,0.077,south,9.0,No
2024/05/07,01:50,0.151,0.133,0.217,0.203,0.209,0.119,0.077,south,8.6,No
2024/05/07,02:00,0.150,0.132,0.218,0.201,0.208,0.118,0.077,south,9.2,No
2024/05/07,02:10,0.150,0.133,0.218,0.203,0.208,0.119,0.077,south,8.4,No
2024/05/07,02:20,0.152,0.133,0.217,0.202,0.207,0.118,0.077,south,8.1,No
2024/05/07,02:30,0.149,0.132,0.216,0.201,0.211,0.119,0.077,south,9.0,No
2024/05/07,02:40,0.152,0.134,0.217,0.202,0.207,0.118,0.077,south,9.2,No
2024/05/07,02:50,0.149,0.133,0.219,0.200,0.210,0.118,0.078,south,8.4,No
2024/05/07,03:00,0.151,0.133,0.217,0.203,0.209,0.119,0.076,south,7.5,No
2024/05/07,03:10,0.151,0.133,0.218,0.200,0.209,0.118,0.077,south,7.1,No
2024/05/07,03:20,0.150,0.133,0.217,0.203,0.209,0.120,0.077,south,7.4,No
2024/05/07,03:30,0.152,0.132,0.219,0.200,0.209,0.118,0.077,south,6.6,No
2024/05/07,03:40,0.149,0.133,0.217,0.203,0.210,0.119,0.077,south,6.1,Yes
2024/05/07,03:50,0.151,0.132,0.218,0.202,0.208,0.119,0.076,south,5.5,Yes
2024/05/07,04:00,0.151,0.133,0.216,0.202,0.209,0.118,0.077,south,4.9,Yes
2024/05/07,04:10,0.151,0.133,0.219,0.203,0.209,0.119,0.079,south-southwest,4.8,Yes
2024/05/07,04:20,0.151,0.134,0.219,0.201,0.210,0.120,0.079,south-southwest,7.1,Yes
2024/05/07,04:30,0.152,0.134,0.220,0.204,0.210,0.121,0.078,southwest,8.6,Yes
2024/05/07,04:40,0.152,0.135,0.219,0.203,0.211,0.121,0.080,southwest,7.4,Yes
2024/05/07,04:50,0.153,0.136,0.222,0.204,0.209,0.122,0.081,south-southwest,6.5,Yes
2024/05/07,05:00,0.154,0.137,0.220,0.204,0.212,0.123,0.082,south-southwest,6.0,Yes
2024/05/07,05:10,0.155,0.136,0.221,0.204,0.210,0.124,0.083,south,5.0,Yes
2024/05/07,05:20,0.155,0.138,0.220,0.204,0.210,0.124,0.083,south,4.1,Yes
2024/05/07,05:30,0.155,0.138,0.219,0.203,0.209,0.124,0.083,south-southwest,4.5,Yes
2024/05/07,05:40,0.154,0.136,0.220,0.204,0.210,0.123,0.082,south-southeast,5.1,Yes
2024/05/07,05:50,0.154,0.137,0.217,0.201,0.208,0.123,0.081,south-southeast,6.4,Yes
2024/05/07,06:00,0.153,0.134,0.217,0.201,0.210,0.121,0.080,south-southeast,7.5,Yes
2024/05/07,06:10,0.152,0.134,0.217,0.201,0.208,0.121,0.080,south-southeast,7.5,No
2024/05/07,06:20,0.151,0.133,0.216,0.200,0.208,0.120,0.079,south-southeast,6.9,No
2024/05/07,06:30,0.151,0.133,0.216,0.200,0.206,0.121,0.078,south-southeast,6.0,No
2024/05/07,06:40,0.150,0.132,0.213,0.199,0.208,0.118,0.079,south,6.4,Yes
2024/05/07,06:50,0.150,0.131,0.215,0.198,0.207,0.119,0.077,south,5.7,Yes
2024/05/07,07:00,0.149,0.131,0.214,0.197,0.206,0.119,0.078,south,5.8,Yes
2024/05/07,07:10,0.149,0.132,0.215,0.199,0.206,0.119,0.078,south,5.3,Yes
2024/05/07,07:20,0.149,0.132,0.214,0.198,0.208,0.119,0.078,south,6.6,Yes
2024/05/07,07:30,0.150,0.131,0.214,0.198,0.206,0.119,0.078,south,6.1,Yes
2024/05/07,07:40,0.149,0.132,0.213,0.197,0.207,0.119,0.079,south,6.9,Yes
2024/05/07,07:50,0.149,0.132,0.213,0.198,0.207,0.120,0.078,south,6.1,Yes
2024/05/07,08:00,0.148,0.131,0.213,0.197,0.206,0.119,0.078,south-southwest,7.8,Yes
2024/05/07,08:10,0.150,0.132,0.212,0.200,0.205,0.120,0.078,south,8.9,Yes
2024/05/07,08:20,0.149,0.131,0.213,0.197,0.206,0.120,0.078,south,7.6,Yes
2024/05/07,08:30,0.150,0.132,0.213,0.198,0.206,0.119,0.078,south,7.1,Yes
2024/05/07,08:40,0.150,0.131,0.214,0.198,0.207,0.119,0.078,south-southwest,7.4,Yes
2024/05/07,08:50,0.150,0.131,0.212,0.200,0.204,0.120,0.078,south-southwest,8.1,Yes
2024/05/07,09:00,0.149,0.132,0.212,0.197,0.207,0.119,0.078,south-southwest,8.2,Yes
2024/05/07,09:10,0.149,0.131,0.211,0.198,0.206,0.119,0.078,south-southwest,8.3,Yes
2024/05/07,09:20,0.148,0.132,0.212,0.196,0.207,0.119,0.078,south-southwest,9.0,Yes
2024/05/07,09:30,0.149,0.130,0.211,0.198,0.205,0.119,0.077,south-southwest,9.2,Yes
2024/05/07,09:40,0.147,0.131,0.212,0.196,0.205,0.119,0.078,south-southwest,8.1,Yes
2024/05/07,09:50,0.147,0.130,0.209,0.197,0.204,0.118,0.078,south-southwest,7.9,Yes
2024/05/07,10:00,0.148,0.131,0.211,0.195,0.205,0.119,0.077,south,9.8,Yes
2024/05/07,10:10,0.149,0.131,0.210,0.196,0.204,0.119,0.078,south-southwest,8.9,Yes
2024/05/07,10:20,0.148,0.132,0.212,0.195,0.205,0.119,0.079,south-southwest,8.8,Yes
2024/05/07,10:30,0.148,0.130,0.209,0.196,0.204,0.119,0.077,south,7.4,Yes
2024/05/07,10:40,0.149,0.132,0.210,0.196,0.204,0.119,0.079,south-southwest,8.7,Yes
2024/05/07,10:50,0.148,0.131,0.209,0.196,0.205,0.118,0.078,south,7.5,Yes
2024/05/07,11:00,0.148,0.132,0.210,0.196,0.205,0.119,0.078,south,8.6,Yes
2024/05/07,11:10,0.147,0.131,0.210,0.196,0.205,0.119,0.078,south,7.6,Yes
2024/05/07,11:20,0.148,0.131,0.210,0.195,0.205,0.119,0.079,south,8.1,Yes
2024/05/07,11:30,0.147,0.130,0.210,0.196,0.205,0.118,0.078,south,8.7,Yes
2024/05/07,11:40,0.148,0.130,0.211,0.193,0.203,0.119,0.077,south,7.7,No
2024/05/07,11:50,0.147,0.130,0.208,0.194,0.205,0.118,0.077,south-southwest,11.7,Yes
2024/05/07,12:00,0.147,0.129,0.209,0.193,0.202,0.117,0.077,south-southwest,11.7,Yes
2024/05/07,12:10,0.147,0.129,0.208,0.195,0.203,0.117,0.077,south-southwest,10.0,Yes
2024/05/07,12:20,0.146,0.130,0.210,0.194,0.203,0.116,0.077,south,9.5,Yes
2024/05/07,12:30,0.148,0.128,0.207,0.195,0.203,0.117,0.076,south,8.9,No
2024/05/07,12:40,0.145,0.128,0.209,0.194,0.204,0.116,0.076,south,10.0,Yes
2024/05/07,12:50,0.147,0.128,0.207,0.195,0.202,0.116,0.076,south,8.5,Yes
2024/05/07,13:00,0.145,0.129,0.208,0.194,0.204,0.117,0.076,south,10.6,Yes
2024/05/07,13:10,0.147,0.129,0.208,0.193,0.203,0.117,0.076,south,10.7,Yes
2024/05/07,13:20,0.147,0.129,0.208,0.195,0.205,0.117,0.076,south,8.9,Yes
2024/05/07,13:30,0.145,0.129,0.209,0.193,0.204,0.117,0.077,south,10.3,Yes
2024/05/07,13:40,0.147,0.129,0.209,0.194,0.205,0.117,0.077,south,9.0,Yes
2024/05/07,13:50,0.145,0.130,0.208,0.193,0.204,0.118,0.077,south-southwest,10.4,Yes
2024/05/07,14:00,0.147,0.128,0.207,0.195,0.203,0.117,0.076,south-southwest,11.2,No
2024/05/07,14:10,0.146,0.129,0.208,0.192,0.204,0.117,0.076,south,11.1,Yes
2024/05/07,14:20,0.145,0.129,0.207,0.193,0.201,0.116,0.076,south-southwest,10.3,Yes
2024/05/07,14:30,0.147,0.128,0.209,0.194,0.204,0.117,0.076,south,10.1,Yes
2024/05/07,14:40,0.146,0.129,0.207,0.194,0.203,0.116,0.077,south,9.5,Yes
2024/05/07,14:50,0.146,0.128,0.209,0.194,0.202,0.116,0.076,south,9.8,No
2024/05/07,15:00,0.146,0.129,0.208,0.194,0.205,0.117,0.076,south,11.7,Yes
2024/05/07,15:10,0.144,0.128,0.208,0.194,0.201,0.116,0.075,south,10.1,Yes
2024/05/07,15:20,0.146,0.128,0.209,0.192,0.205,0.117,0.076,south,9.6,Yes
2024/05/07,15:30,0.145,0.128,0.209,0.194,0.204,0.116,0.075,south,8.4,Yes
2024/05/07,15:40,0.147,0.129,0.208,0.192,0.204,0.117,0.076,south,9.8,Yes
2024/05/07,15:50,0.145,0.128,0.207,0.193,0.204,0.116,0.076,south,9.5,Yes
2024/05/07,16:00,0.147,0.129,0.209,0.193,0.204,0.117,0.075,south,7.3,Yes
2024/05/07,16:10,0.147,0.129,0.208,0.194,0.204,0.117,0.076,south-southeast,5.0,Yes
2024/05/07,16:20,0.146,0.130,0.209,0.192,0.203,0.117,0.076,south,6.3,Yes
2024/05/07,16:30,0.147,0.130,0.208,0.195,0.206,0.117,0.076,south,5.4,Yes
2024/05/07,16:40,0.147,0.129,0.208,0.192,0.203,0.118,0.078,south-southeast,5.2,Yes
2024/05/07,16:50,0.147,0.130,0.208,0.194,0.206,0.119,0.078,south,8.3,Yes
2024/05/07,17:00,0.147,0.131,0.208,0.192,0.204,0.118,0.079,south,7.0,Yes
2024/05/07,17:10,0.148,0.130,0.208,0.195,0.204,0.119,0.078,south,6.4,Yes
2024/05/07,17:20,0.147,0.131,0.209,0.193,0.203,0.118,0.079,south-southeast,5.6,Yes
2024/05/07,17:30,0.148,0.130,0.208,0.195,0.204,0.119,0.078,south-southeast,7.9,Yes
2024/05/07,17:40,0.147,0.130,0.207,0.194,0.204,0.118,0.079,south,8.4,Yes
2024/05/07,17:50,0.148,0.130,0.208,0.194,0.204,0.119,0.078,south,9.5,Yes
2024/05/07,18:00,0.146,0.131,0.207,0.193,0.202,0.117,0.078,south,7.8,Yes
2024/05/07,18:10,0.147,0.130,0.208,0.194,0.204,0.118,0.079,south,7.3,Yes
2024/05/07,18:20,0.146,0.129,0.207,0.192,0.203,0.117,0.079,south,6.5,Yes
2024/05/07,18:30,0.146,0.128,0.208,0.192,0.203,0.117,0.078,south,6.5,Yes
2024/05/07,18:40,0.145,0.130,0.205,0.191,0.204,0.117,0.078,south,5.3,Yes
2024/05/07,18:50,0.147,0.129,0.207,0.194,0.203,0.116,0.077,south,4.5,Yes
2024/05/07,19:00,0.146,0.131,0.204,0.190,0.202,0.117,0.079,south-southwest,4.7,Yes
2024/05/07,19:10,0.147,0.130,0.207,0.193,0.203,0.117,0.078,south-southwest,4.0,Yes
2024/05/07,19:20,0.147,0.131,0.207,0.192,0.205,0.118,0.078,west-southwest,4.0,Yes
2024/05/07,19:30,0.148,0.131,0.208,0.193,0.203,0.117,0.079,west-northwest,6.0,Yes
2024/05/07,19:40,0.148,0.132,0.208,0.194,0.206,0.117,0.078,west-northwest,7.1,Yes
2024/05/07,19:50,0.147,0.131,0.209,0.194,0.205,0.117,0.079,west-northwest,6.0,No
2024/05/07,20:00,0.147,0.131,0.207,0.194,0.204,0.117,0.078,west-northwest,6.8,Yes
2024/05/07,20:10,0.148,0.130,0.208,0.195,0.204,0.116,0.078,west-northwest,6.7,Yes
2024/05/07,20:20,0.147,0.132,0.207,0.193,0.206,0.117,0.078,northwest,6.4,Yes
2024/05/07,20:30,0.147,0.130,0.207,0.193,0.204,0.116,0.078,northwest,3.2,Yes
2024/05/07,20:40,0.147,0.131,0.208,0.192,0.206,0.117,0.078,north-northwest,3.3,Yes
2024/05/07,20:50,0.147,0.130,0.207,0.195,0.205,0.116,0.078,north-northwest,4.3,Yes
2024/05/07,21:00,0.146,0.129,0.208,0.193,0.206,0.116,0.076,north-northwest,4.9,Yes
2024/05/07,21:10,0.146,0.129,0.206,0.193,0.205,0.116,0.077,northwest,2.8,Yes
2024/05/07,21:20,0.145,0.128,0.207,0.191,0.205,0.115,0.076,northwest,4.8,Yes
2024/05/07,21:30,0.144,0.128,0.205,0.191,0.203,0.114,0.076,northwest,2.4,Yes
2024/05/07,21:40,0.144,0.127,0.205,0.191,0.204,0.115,0.076,west,1.2,Yes
2024/05/07,21:50,0.144,0.128,0.205,0.191,0.202,0.115,0.076,southwest,1.1,Yes
2024/05/07,22:00,0.145,0.128,0.206,0.191,0.205,0.115,0.076,-,CALM,Yes
2024/05/07,22:10,0.145,0.128,0.206,0.191,0.202,0.114,0.076,-,CALM,Yes
2024/05/07,22:20,0.144,0.128,0.206,0.192,0.204,0.114,0.075,-,CALM,Yes
2024/05/07,22:30,0.144,0.128,0.206,0.191,0.203,0.115,0.076,west-northwest,1.0,Yes
2024/05/07,22:40,0.145,0.127,0.205,0.191,0.204,0.114,0.076,northwest,1.0,Yes
2024/05/07,22:50,0.145,0.128,0.206,0.190,0.203,0.114,0.075,-,CALM,Yes
2024/05/07,23:00,0.144,0.127,0.204,0.191,0.203,0.113,0.075,-,CALM,Yes
2024/05/07,23:10,0.144,0.128,0.205,0.189,0.202,0.114,0.075,east-northeast,0.8,Yes
2024/05/07,23:20,0.143,0.127,0.204,0.191,0.203,0.114,0.074,southeast,1.0,Yes
2024/05/07,23:30,0.144,0.126,0.205,0.189,0.203,0.114,0.075,-,CALM,Yes
2024/05/07,23:40,0.145,0.127,0.204,0.192,0.203,0.114,0.075,-,CALM,Yes
2024/05/07,23:50,0.145,0.128,0.206,0.190,0.202,0.115,0.076,east,0.8,Yes
